SCP
0 0 0 0 0 0 0 0 0 0 0 0 0 0 0 0 0 0 0 0 0 0 0 0 0 0 0 0 0 0 0 0 0 0 0 0 0 0 0 0 0 0 0 0
0 0 0 0 0 0 0 0 0 0 0 0 0 0 0 0 0 0 0 0 0 0 0 0 0 0 0 0 0 0 0 0 0 0 0 0 0 0 0 0 0 0 0 0
0 0 0 0 0 0 0 0 0 0 0 0 0 0 0 0 0 0 0 0 0 0 0 0 0 0 0 0 0 0 0 0 0 0 0 0 0 0 0 0 0 0 0 0
0 0 0 0 0 0 0 0 0 0 0 0 0 0 0 0 0 0 0 0 0 0 0 0 0 0 0 0 0 0 0 0 0 0 0 0 0 0 0 0 0 0 0 0
0 0 0 0 0 0 0 0 0 0 0 0 0 0 0 0 0 0 0 0 -0 0 0 0 0 0 0 0 0 0 0 0 0 0 0 0 0 0 0 0 0 0 0 0
0 0 0 0 0 0 0 0 0 0 0 0 0 0 0 0 0 0 0 0 0 0 0 0 0 0 0 0 0 0 0 0 0 0 0 0 0 0 0 0 0 0 0 0
0 0 0 0 0 0 0 0 0 0 0 0 0 0 0 0 0 0 0 0 0 0 0 0 0 0 0 0 0 0 0 0 0 0 0 0 0 0 0 0 0 0 0 0
0 0 0 0 0 0 0 0 0 0 0 0 0 0 0 0 0 0 0 0 0 0 0 0 0 0 0 0 0 0 0 0 0 0 0 0 0 0 0 0 0 0 0 0
0 0 0 0 0 0 0 0 0 0 0 0 0 0 0 0 0 0 0 0 0 0 0 0 0 0 0 0 0 0 0 0 0 0 0 0 0 0 0 0 0 0 0 0
0 0 0 0 0 0 0 0 0 0 0 0 0 0 0 0 0 0 0 0 0 0 0 0 0 0 0 0 0 0 0 0 0 0 0 0 0 0 0 0 0 0 0 0
0 0 0 0 0 0 0 0 0 0 0 0 0 0 0 0 0 0 0 0 0 0 0 0 0 0 0 0 0 0 0 0 0 0 0 0 0 0 0 0 0 0 0 0
0 0 0 0 0 0 0 0 0 0 0 0 0 0 0 0 0 0 0 0 0 0 0 0 0 0 0 0 0 0 0 0 0 0 0 0 0 0 0 0 0 0 0 0
0 0 0 0 0 0 0 0 0 0 0 0 0 0 0 0 0 0 0 0 0 0 0 0 0 0 0 0 0 0 0 0 0 0 0 0 0 0 0 0 0 0 0 0
0 0 0 0 0 0 0 0 0 0 0 0 0 0 0 0 0 0 0 0 0 0 0 0 0 0 0 0 0 0 0 0 0 0 0 0 0 0 0 0 0 0 0 0
0 0 0 0 0 0 0 0 0 0 0 0 0 0 0 0 0 0 0 0 0 0 0 0 0 0 0 0 0 0 0 0 0 0 0 0 0 0 0 0 0 0 0 0
0 0 0 0 0 0 0 0 0 0 0 0 0 0 0 0 0 0 0 0 0 0 0 0 0 0 0 0 0 0 0 0 0 0 0 0 0 0 0 0 0 0 0 0
0 0 0 0 0 0 0 0 0 0 0 0 0 0 0 0 0 0 0 0 0 0 0 0 0 0 0 0 0 0 0 0 0 0 0 0 0 0 0 0 0 0 0 0
0 0 0 0 0 0 0 0 0 0 0 0 0 0 0 0 0 0 0 0 0 0 0 0 0 0 0 0 0 0 0 0 0 0 0 0 0 0 0 0 0 0 0 0
0 0 0 0 0 0 0 0 0 0 0 0 0 0 0 0 0 0 0 0 0 0 0 0 0 0 0 0 0 0 0 0 0 0 0 0 0 0 0 0 0 0 0 0
0 0 0 0 0 0 0 0 0 0 0 0 0 0 0 0 0 0 0 0 0 0 0 0 0 0 0 0 0 0 0 0 0 0 0 0 0 0 0 0 0 0 0 0
0 0 0 0 0 0 0 0 0 0 0 0 0 0 0 0 0 0 0 0 0 0 0 0 0 0 0 0 0 0 0 0 0 0 0 0 0 0 0 0 0 0 0 0
0 0 0 0 0 0 0 0 0 0 0 0 0 0 0 0 0 0 0 0 0 0 0 0 0 0 0 0 0 0 0 0 0 0 0 0 0 0 0 0 0 0 0 0
0 0 0 0 0 0 0 0 0 0 0 0 0 0 0 0 0 0 0 0 0 0 0 0 0 0 0 0 0 0 0 0 0 0 0 0 0 0 0 0 0 0 0 0
0 0 0 0 0 0 0 0 0 0 0 0 0 0 0 0 0 0 0 0 0 0 0 0 0 0 0 0 0 0 0 0 0 0 0 0 0 0 0 0 0 0 0 0
0 0 0 0 0 0 0 0 0 0 0 0 0 0 0 0 0 0 0 0 0 0 0 0 0 0 0 0 0 0 0 0 0 0 0 0 0 0 0 0 0 0 0 0
0 0 0 0 0 0 0 0 0 0 0 0 0 0 0 0 0 0 0 0 0 0 0 0 0 0 0 0 0 0 0 0 0 0 0 0 0 0 0 0 0 0 0 0
Wind_Speed_500mb
4 6 15 15 10 2 9 5 7 0 2 2 10 12 18 23 35 36 37 37 38 35 27 26 23 18 17 18 18 19 18 16 13 9 6 2 1 4 6 8 11 13 15 16
7 11 7 6 4 5 6 7 3 2 1 1 6 19 15 12 21 55 53 44 41 38 37 34 30 23 17 16 19 21 21 19 16 13 9 5 3 2 4 8 11 13 14 16
11 0 2 6 6 11 2 9 8 2 2 3 9 14 6 5 8 15 40 43 39 40 41 39 36 28 23 18 16 21 22 22 20 17 13 10 8 4 3 6 8 10 13 15
1 2 7 5 7 5 10 5 9 10 6 7 5 9 10 8 8 9 29 38 38 38 39 39 39 34 24 17 18 24 26 26 25 22 18 15 11 8 7 7 8 9 11 13
7 3 5 5 4 1 5 4 8 6 8 4 2 3 13 2 11 14 21 37 40 36 34 39 40 33 27 24 17 20 28 30 29 26 23 20 15 12 10 9 8 8 8 11
5 3 3 4 5 4 14 11 12 8 5 4 6 9 10 13 16 10 12 30 35 36 34 34 35 39 36 33 27 22 29 32 32 30 28 23 19 16 14 12 10 9 7 8
2 2 1 4 10 10 5 9 6 5 5 10 1 4 19 11 12 16 32 39 33 32 35 37 41 44 45 39 31 26 29 36 36 34 31 26 23 20 18 14 12 10 6 5
13 8 15 7 3 11 10 9 11 16 8 7 3 14 14 10 7 13 38 40 36 36 33 35 36 38 38 37 33 28 27 36 39 38 35 32 29 25 21 18 16 14 10 5
11 4 2 3 2 2 11 10 5 14 4 6 8 14 18 9 10 14 30 38 44 40 37 36 37 37 35 35 30 26 28 33 40 40 40 38 34 31 26 23 21 17 14 10
12 7 4 2 0 1 6 3 6 5 6 8 8 12 12 14 25 18 23 44 44 40 38 38 36 32 31 30 27 29 29 28 32 39 42 40 37 34 31 29 24 20 18 15
8 7 0 4 13 15 4 4 3 4 8 11 4 14 16 26 30 38 35 58 53 49 43 38 33 28 28 30 35 36 36 34 33 36 39 42 41 39 36 33 30 26 24 21
9 10 8 13 1 3 3 10 13 8 12 5 4 15 4 12 17 38 50 62 54 48 45 40 33 30 30 30 37 42 42 41 33 30 35 41 43 43 43 40 36 34 31 28
15 4 6 12 8 7 9 13 8 7 5 13 12 13 1 3 11 41 54 60 56 52 49 41 33 28 25 28 33 40 44 41 35 30 30 36 41 45 45 44 41 40 36 34
13 4 15 18 13 11 12 15 27 11 7 10 15 6 8 13 15 24 54 66 63 61 54 42 33 28 27 27 30 34 40 41 39 35 30 30 34 39 42 42 42 42 42 41
8 12 7 5 4 6 10 12 36 30 32 16 13 26 16 17 24 45 63 66 62 60 54 43 34 28 27 27 27 29 33 40 41 40 35 26 24 29 35 38 40 42 45 45
1 5 6 8 1 3 8 10 19 34 4 20 10 24 14 26 23 29 58 69 68 64 55 43 34 30 29 28 27 27 29 35 39 41 40 34 29 30 34 38 41 44 47 48
15 13 7 11 4 2 19 26 24 15 10 30 25 54 15 10 18 50 67 75 75 67 54 45 36 31 29 28 27 28 32 36 38 40 40 37 35 36 37 39 41 43 46 48
13 13 6 7 5 7 13 4 17 35 15 37 13 11 20 23 34 46 58 74 70 63 54 43 37 32 28 27 27 27 30 33 33 35 36 35 34 34 36 37 39 41 43 45
4 9 4 10 10 17 21 12 18 20 29 44 51 33 18 17 18 13 38 52 67 59 50 41 36 34 33 32 30 28 29 29 29 30 30 31 30 30 31 33 34 37 39 42
7 5 6 6 13 23 18 7 25 10 27 28 59 50 23 38 10 10 47 48 54 50 45 44 41 38 35 35 32 30 28 27 26 25 24 24 25 26 27 29 31 33 36 38
7 1 23 8 11 19 12 14 25 14 17 5 42 36 51 21 14 35 55 54 53 52 50 46 43 39 37 34 30 27 24 22 20 19 18 17 18 19 21 23 26 29 32 35
21 21 12 5 4 33 21 15 25 7 3 6 11 37 46 33 39 57 61 62 60 57 52 46 41 37 32 29 25 23 20 16 14 12 11 12 15 18 21 24 27 32 35 38
10 14 13 22 15 2 43 5 19 10 12 11 21 33 50 53 57 64 66 62 57 53 50 44 37 34 31 26 22 16 13 11 9 9 11 14 17 20 23 27 29 32 36 39
10 8 6 4 3 4 34 5 18 12 15 17 19 32 45 56 60 63 61 59 54 48 45 41 35 30 26 23 18 13 10 8 7 9 12 14 18 22 25 28 30 33 36 38
7 19 13 8 3 3 19 24 22 21 20 24 29 35 47 54 62 66 65 59 53 48 43 37 32 28 23 19 15 11 8 5 5 8 12 15 18 20 22 25 29 32 35 39
12 13 11 9 16 6 5 50 32 32 32 30 34 43 42 48 62 61 57 52 47 42 37 33 28 24 21 17 12 8 4 3 5 8 10 14 18 23 28 31 29 34 39 40
Wind_Direction_500mb
110 124 206 192 192 90 137 145 170 52 92 157 232 270 263 240 221 222 217 217 218 217 203 206 206 206 212 213 214 213 211 205 197 192 191 192 92 58 54 54 53 49 48 49
58 232 152 104 163 166 146 138 189 325 102 145 11 280 262 203 223 221 219 219 219 212 205 207 206 205 204 214 213 212 211 208 204 204 214 206 187 96 68 65 59 64 62 62
169 178 47 149 148 144 71 167 177 200 79 80 350 296 236 216 222 213 221 225 217 213 207 205 206 204 204 212 218 215 215 212 210 214 218 211 201 181 134 98 85 80 77 71
134 27 170 136 169 122 178 165 123 119 106 226 27 261 271 217 221 210 208 205 208 211 210 210 205 203 201 200 214 213 213 213 214 215 213 201 207 208 181 152 129 104 91 79
217 132 167 162 128 117 150 118 97 85 89 4 236 87 261 71 231 226 206 204 205 206 209 207 208 207 203 207 216 219 216 214 215 215 207 207 214 209 195 179 153 123 103 87
96 47 31 86 74 30 148 79 56 62 71 356 213 159 266 192 197 177 194 193 196 203 206 202 204 208 208 212 216 221 221 218 217 216 212 214 211 212 206 192 177 156 137 94
48 204 316 170 91 8 67 106 34 4 0 221 6 133 247 247 223 188 184 188 191 195 202 199 198 200 205 213 218 222 225 222 221 219 219 220 216 212 209 200 196 183 168 129
155 267 175 167 219 177 188 166 158 193 197 207 352 228 248 224 220 199 192 187 196 203 202 196 192 195 200 208 214 221 227 224 223 224 221 219 218 218 217 211 204 200 196 192
144 236 32 56 9 60 190 205 148 104 37 51 210 281 294 194 220 194 184 194 202 201 197 187 185 189 194 203 211 223 227 225 225 227 225 223 223 221 221 222 217 214 214 215
199 90 2 55 167 63 147 231 95 3 135 251 267 282 237 210 206 202 204 200 196 194 189 184 181 185 193 202 213 223 228 236 235 233 231 231 230 227 226 228 229 230 232 236
133 104 52 48 204 180 135 209 36 130 151 169 185 254 216 208 196 194 197 199 193 188 183 180 179 186 201 209 217 224 225 227 226 229 233 235 235 235 234 235 237 239 242 248
199 113 154 205 176 42 146 201 172 142 221 237 167 267 246 220 198 183 197 197 191 188 181 182 188 198 212 221 225 227 226 226 227 228 231 235 236 237 238 239 240 243 248 255
191 245 65 351 357 1 209 193 184 125 93 205 144 261 149 245 199 203 195 195 190 185 183 188 197 208 220 229 232 230 227 227 227 232 237 237 238 240 242 242 243 248 253 258
143 121 173 199 195 132 191 193 184 147 136 167 228 282 236 229 211 196 202 198 192 189 190 199 207 217 229 236 237 229 225 221 222 228 235 241 242 246 248 249 248 249 253 260
155 214 157 258 233 131 193 173 183 199 207 178 232 220 215 214 204 202 200 194 194 195 200 207 212 225 234 234 232 228 220 215 218 223 229 240 247 245 245 245 249 251 254 257
342 222 97 307 340 155 275 218 210 221 264 270 282 269 205 231 198 189 199 195 198 200 204 207 213 223 227 229 225 221 211 206 212 221 226 230 234 235 236 239 243 245 249 253
155 135 109 257 358 102 298 200 190 199 204 212 219 241 175 199 203 202 205 204 203 204 201 204 213 220 222 221 218 212 203 199 206 215 223 229 236 239 241 244 248 251 254 257
151 131 116 179 26 215 248 57 189 199 210 212 260 228 186 203 212 219 212 206 207 203 198 203 210 210 206 201 196 194 189 191 199 211 222 229 236 240 243 246 249 254 257 259
141 134 146 158 195 301 260 193 151 169 249 209 221 226 206 175 175 213 199 207 204 195 195 197 195 191 185 178 175 178 177 180 190 203 214 222 230 238 244 249 250 253 259 264
123 95 141 126 183 212 267 199 151 119 268 178 202 220 168 146 191 221 188 183 180 183 184 182 179 175 172 169 169 176 175 178 185 197 211 224 234 242 249 254 259 264 266 270
131 185 210 175 231 280 210 174 158 132 245 231 206 201 161 189 209 173 176 172 178 177 175 174 171 171 170 167 169 175 174 179 186 199 212 228 240 250 258 265 270 273 276 278
166 162 190 98 155 256 146 119 184 202 73 155 167 181 170 170 147 160 167 168 168 168 168 169 172 171 168 168 170 174 173 170 182 200 220 241 257 267 274 279 284 288 290 291
219 195 178 190 213 242 183 54 184 154 150 151 163 174 178 160 157 162 161 164 164 166 166 167 172 168 163 163 165 175 168 175 196 225 251 268 278 286 292 294 297 299 300 300
245 180 181 134 288 238 200 202 163 153 149 149 155 165 175 164 164 161 160 160 162 163 163 163 162 161 162 164 171 179 181 199 230 259 275 286 295 299 301 303 305 305 305 306
169 150 166 262 218 131 202 211 190 164 146 147 149 163 169 169 162 165 162 162 162 161 161 163 166 165 163 162 167 173 187 218 268 291 298 300 302 303 306 309 311 311 312 314
192 165 180 219 195 159 185 193 182 164 153 151 156 150 158 169 164 166 159 160 160 160 161 164 164 163 161 160 163 167 192 255 280 291 300 304 306 307 309 309 309 313 314 315
Wind_Speed_850mb
4 6 15 15 10 2 9 5 7 0 2 2 10 12 18 23 35 36 37 37 38 35 27 26 23 18 17 18 18 19 18 16 13 9 6 2 1 4 6 8 11 13 15 16
7 11 7 6 4 5 6 7 3 2 1 1 6 19 15 12 21 55 53 44 41 38 37 34 30 23 17 16 19 21 21 19 16 13 9 5 3 2 4 8 11 13 14 16
11 0 2 6 6 11 2 9 8 2 2 3 9 14 6 5 8 15 40 43 39 40 41 39 36 28 23 18 16 21 22 22 20 17 13 10 8 4 3 6 8 10 13 15
1 2 7 5 7 5 10 5 9 10 6 7 5 9 10 8 8 9 29 38 38 38 39 39 39 34 24 17 18 24 26 26 25 22 18 15 11 8 7 7 8 9 11 13
7 3 5 5 4 1 5 4 8 6 8 4 2 3 13 2 11 14 21 37 40 36 34 39 40 33 27 24 17 20 28 30 29 26 23 20 15 12 10 9 8 8 8 11
5 3 3 4 5 4 14 11 12 8 5 4 6 9 10 13 16 10 12 30 35 36 34 34 35 39 36 33 27 22 29 32 32 30 28 23 19 16 14 12 10 9 7 8
2 2 1 4 10 10 5 9 6 5 5 10 1 4 19 11 12 16 32 39 33 32 35 37 41 44 45 39 31 26 29 36 36 34 31 26 23 20 18 14 12 10 6 5
13 8 15 7 3 11 10 9 11 16 8 7 3 14 14 10 7 13 38 40 36 36 33 35 36 38 38 37 33 28 27 36 39 38 35 32 29 25 21 18 16 14 10 5
11 4 2 3 2 2 11 10 5 14 4 6 8 14 18 9 10 14 30 38 44 40 37 36 37 37 35 35 30 26 28 33 40 40 40 38 34 31 26 23 21 17 14 10
12 7 4 2 0 1 6 3 6 5 6 8 8 12 12 14 25 18 23 44 44 40 38 38 36 32 31 30 27 29 29 28 32 39 42 40 37 34 31 29 24 20 18 15
8 7 0 4 13 15 4 4 3 4 8 11 4 14 16 26 30 38 35 58 53 49 43 38 33 28 28 30 35 36 36 34 33 36 39 42 41 39 36 33 30 26 24 21
9 10 8 13 1 3 3 10 13 8 12 5 4 15 4 12 17 38 50 62 54 48 45 40 33 30 30 30 37 42 42 41 33 30 35 41 43 43 43 40 36 34 31 28
15 4 6 12 8 7 9 13 8 7 5 13 12 13 1 3 11 41 54 60 56 52 49 41 33 28 25 28 33 40 44 41 35 30 30 36 41 45 45 44 41 40 36 34
13 4 15 18 13 11 12 15 27 11 7 10 15 6 8 13 15 24 54 66 63 61 54 42 33 28 27 27 30 34 40 41 39 35 30 30 34 39 42 42 42 42 42 41
8 12 7 5 4 6 10 12 36 30 32 16 13 26 16 17 24 45 63 66 62 60 54 43 34 28 27 27 27 29 33 40 41 40 35 26 24 29 35 38 40 42 45 45
1 5 6 8 1 3 8 10 19 34 4 20 10 24 14 26 23 29 58 69 68 64 55 43 34 30 29 28 27 27 29 35 39 41 40 34 29 30 34 38 41 44 47 48
15 13 7 11 4 2 19 26 24 15 10 30 25 54 15 10 18 50 67 75 75 67 54 45 36 31 29 28 27 28 32 36 38 40 40 37 35 36 37 39 41 43 46 48
13 13 6 7 5 7 13 4 17 35 15 37 13 11 20 23 34 46 58 74 70 63 54 43 37 32 28 27 27 27 30 33 33 35 36 35 34 34 36 37 39 41 43 45
4 9 4 10 10 17 21 12 18 20 29 44 51 33 18 17 18 13 38 52 67 59 50 41 36 34 33 32 30 28 29 29 29 30 30 31 30 30 31 33 34 37 39 42
7 5 6 6 13 23 18 7 25 10 27 28 59 50 23 38 10 10 47 48 54 50 45 44 41 38 35 35 32 30 28 27 26 25 24 24 25 26 27 29 31 33 36 38
7 1 23 8 11 19 12 14 25 14 17 5 42 36 51 21 14 35 55 54 53 52 50 46 43 39 37 34 30 27 24 22 20 19 18 17 18 19 21 23 26 29 32 35
21 21 12 5 4 33 21 15 25 7 3 6 11 37 46 33 39 57 61 62 60 57 52 46 41 37 32 29 25 23 20 16 14 12 11 12 15 18 21 24 27 32 35 38
10 14 13 22 15 2 43 5 19 10 12 11 21 33 50 53 57 64 66 62 57 53 50 44 37 34 31 26 22 16 13 11 9 9 11 14 17 20 23 27 29 32 36 39
10 8 6 4 3 4 34 5 18 12 15 17 19 32 45 56 60 63 61 59 54 48 45 41 35 30 26 23 18 13 10 8 7 9 12 14 18 22 25 28 30 33 36 38
7 19 13 8 3 3 19 24 22 21 20 24 29 35 47 54 62 66 65 59 53 48 43 37 32 28 23 19 15 11 8 5 5 8 12 15 18 20 22 25 29 32 35 39
12 13 11 9 16 6 5 50 32 32 32 30 34 43 42 48 62 61 57 52 47 42 37 33 28 24 21 17 12 8 4 3 5 8 10 14 18 23 28 31 29 34 39 40
Wind_Direction_850mb
110 124 206 192 192 90 137 145 170 52 92 157 232 270 263 240 221 222 217 217 218 217 203 206 206 206 212 213 214 213 211 205 197 192 191 192 92 58 54 54 53 49 48 49
58 232 152 104 163 166 146 138 189 325 102 145 11 280 262 203 223 221 219 219 219 212 205 207 206 205 204 214 213 212 211 208 204 204 214 206 187 96 68 65 59 64 62 62
169 178 47 149 148 144 71 167 177 200 79 80 350 296 236 216 222 213 221 225 217 213 207 205 206 204 204 212 218 215 215 212 210 214 218 211 201 181 134 98 85 80 77 71
134 27 170 136 169 122 178 165 123 119 106 226 27 261 271 217 221 210 208 205 208 211 210 210 205 203 201 200 214 213 213 213 214 215 213 201 207 208 181 152 129 104 91 79
217 132 167 162 128 117 150 118 97 85 89 4 236 87 261 71 231 226 206 204 205 206 209 207 208 207 203 207 216 219 216 214 215 215 207 207 214 209 195 179 153 123 103 87
96 47 31 86 74 30 148 79 56 62 71 356 213 159 266 192 197 177 194 193 196 203 206 202 204 208 208 212 216 221 221 218 217 216 212 214 211 212 206 192 177 156 137 94
48 204 316 170 91 8 67 106 34 4 0 221 6 133 247 247 223 188 184 188 191 195 202 199 198 200 205 213 218 222 225 222 221 219 219 220 216 212 209 200 196 183 168 129
155 267 175 167 219 177 188 166 158 193 197 207 352 228 248 224 220 199 192 187 196 203 202 196 192 195 200 208 214 221 227 224 223 224 221 219 218 218 217 211 204 200 196 192
144 236 32 56 9 60 190 205 148 104 37 51 210 281 294 194 220 194 184 194 202 201 197 187 185 189 194 203 211 223 227 225 225 227 225 223 223 221 221 222 217 214 214 215
199 90 2 55 167 63 147 231 95 3 135 251 267 282 237 210 206 202 204 200 196 194 189 184 181 185 193 202 213 223 228 236 235 233 231 231 230 227 226 228 229 230 232 236
133 104 52 48 204 180 135 209 36 130 151 169 185 254 216 208 196 194 197 199 193 188 183 180 179 186 201 209 217 224 225 227 226 229 233 235 235 235 234 235 237 239 242 248
199 113 154 205 176 42 146 201 172 142 221 237 167 267 246 220 198 183 197 197 191 188 181 182 188 198 212 221 225 227 226 226 227 228 231 235 236 237 238 239 240 243 248 255
191 245 65 351 357 1 209 193 184 125 93 205 144 261 149 245 199 203 195 195 190 185 183 188 197 208 220 229 232 230 227 227 227 232 237 237 238 240 242 242 243 248 253 258
143 121 173 199 195 132 191 193 184 147 136 167 228 282 236 229 211 196 202 198 192 189 190 199 207 217 229 236 237 229 225 221 222 228 235 241 242 246 248 249 248 249 253 260
155 214 157 258 233 131 193 173 183 199 207 178 232 220 215 214 204 202 200 194 194 195 200 207 212 225 234 234 232 228 220 215 218 223 229 240 247 245 245 245 249 251 254 257
342 222 97 307 340 155 275 218 210 221 264 270 282 269 205 231 198 189 199 195 198 200 204 207 213 223 227 229 225 221 211 206 212 221 226 230 234 235 236 239 243 245 249 253
155 135 109 257 358 102 298 200 190 199 204 212 219 241 175 199 203 202 205 204 203 204 201 204 213 220 222 221 218 212 203 199 206 215 223 229 236 239 241 244 248 251 254 257
151 131 116 179 26 215 248 57 189 199 210 212 260 228 186 203 212 219 212 206 207 203 198 203 210 210 206 201 196 194 189 191 199 211 222 229 236 240 243 246 249 254 257 259
141 134 146 158 195 301 260 193 151 169 249 209 221 226 206 175 175 213 199 207 204 195 195 197 195 191 185 178 175 178 177 180 190 203 214 222 230 238 244 249 250 253 259 264
123 95 141 126 183 212 267 199 151 119 268 178 202 220 168 146 191 221 188 183 180 183 184 182 179 175 172 169 169 176 175 178 185 197 211 224 234 242 249 254 259 264 266 270
131 185 210 175 231 280 210 174 158 132 245 231 206 201 161 189 209 173 176 172 178 177 175 174 171 171 170 167 169 175 174 179 186 199 212 228 240 250 258 265 270 273 276 278
166 162 190 98 155 256 146 119 184 202 73 155 167 181 170 170 147 160 167 168 168 168 168 169 172 171 168 168 170 174 173 170 182 200 220 241 257 267 274 279 284 288 290 291
219 195 178 190 213 242 183 54 184 154 150 151 163 174 178 160 157 162 161 164 164 166 166 167 172 168 163 163 165 175 168 175 196 225 251 268 278 286 292 294 297 299 300 300
245 180 181 134 288 238 200 202 163 153 149 149 155 165 175 164 164 161 160 160 162 163 163 163 162 161 162 164 171 179 181 199 230 259 275 286 295 299 301 303 305 305 305 306
169 150 166 262 218 131 202 211 190 164 146 147 149 163 169 169 162 165 162 162 162 161 161 163 166 165 163 162 167 173 187 218 268 291 298 300 302 303 306 309 311 311 312 314
192 165 180 219 195 159 185 193 182 164 153 151 156 150 158 169 164 166 159 160 160 160 161 164 164 163 161 160 163 167 192 255 280 291 300 304 306 307 309 309 309 313 314 315